QPF
0.00 0.00 0.00 0.00 0.00 0.00 0.00 0.00 0.00 0.00 0.00 0.00 0.00 0.00 0.00 0.00 0.00 0.00 0.00 0.00 0.00 0.00 0.00 0.00 0.00 0.00 0.00 0.00 0.00 0.00 0.00 0.00 0.00 0.00 0.00 0.00 0.00 0.00 0.00 0.00 0.00 0.00 0.00 0.00 0.00 0.00 0.01 0.01 0.02 0.03 0.04 0.04 0.03 0.02 0.02 0.02 0.02 0.01 0.01 0.01 0.01 0.01 0.01 0.01 0.01 0.01 0.01 0.01 0.01
0.00 0.00 0.00 0.00 0.00 0.00 0.00 0.00 0.00 0.00 0.00 0.00 0.00 0.00 0.00 0.00 0.00 0.00 0.00 0.00 0.00 0.00 0.00 0.00 0.00 0.00 0.00 0.00 0.00 0.00 0.00 0.00 0.00 0.00 0.00 0.00 0.00 0.00 0.00 0.00 0.00 0.00 0.00 0.00 0.00 0.00 0.01 0.01 0.03 0.04 0.04 0.03 0.02 0.02 0.02 0.02 0.02 0.02 0.02 0.01 0.01 0.01 0.01 0.02 0.01 0.01 0.01 0.01 0.01
0.00 0.00 0.00 0.00 0.00 0.00 0.00 0.00 0.00 0.00 0.00 0.00 0.00 0.00 0.00 0.00 0.00 0.00 0.00 0.00 0.00 0.00 0.00 0.00 0.00 0.00 0.00 0.00 0.00 0.00 0.00 0.00 0.00 0.00 0.00 0.00 0.00 0.00 0.00 0.00 0.00 0.00 0.00 0.00 0.00 0.00 0.01 0.02 0.03 0.03 0.03 0.02 0.02 0.02 0.02 0.01 0.01 0.02 0.02 0.02 0.02 0.02 0.02 0.02 0.02 0.01 0.01 0.01 0.01
0.00 0.00 0.00 0.00 0.00 0.00 0.00 0.00 0.00 0.00 0.00 0.00 0.00 0.00 0.00 0.00 0.00 0.00 0.00 0.00 0.00 0.00 0.00 0.00 0.00 0.00 0.00 0.00 0.00 0.00 0.00 0.00 0.00 0.00 0.00 0.00 0.00 0.00 0.00 0.00 0.00 0.00 0.00 0.00 0.00 0.00 0.01 0.02 0.03 0.03 0.02 0.03 0.03 0.02 0.02 0.02 0.02 0.02 0.02 0.01 0.02 0.02 0.02 0.02 0.02 0.02 0.02 0.02 0.03
0.00 0.00 0.00 0.00 0.00 0.00 0.00 0.00 0.00 0.00 0.00 0.00 0.00 0.00 0.00 0.00 0.00 0.00 0.00 0.00 0.00 0.00 0.00 0.00 0.00 0.00 0.00 0.00 0.00 0.00 0.00 0.00 0.00 0.00 0.00 0.00 0.00 0.00 0.00 0.00 0.00 0.00 0.00 0.00 0.00 0.00 0.01 0.03 0.03 0.03 0.02 0.02 0.02 0.02 0.03 0.02 0.02 0.02 0.02 0.02 0.02 0.02 0.02 0.02 0.02 0.03 0.03 0.03 0.06
0.00 0.00 0.00 0.00 0.00 0.00 0.00 0.00 0.00 0.00 0.00 0.00 0.00 0.00 0.00 0.00 0.00 0.00 0.00 0.00 0.00 0.00 0.00 0.00 0.00 0.00 0.00 0.00 0.00 0.00 0.00 0.00 0.00 0.00 0.00 0.00 0.00 0.00 0.00 0.00 0.00 0.00 0.00 0.00 0.00 0.01 0.02 0.03 0.03 0.03 0.03 0.02 0.02 0.02 0.02 0.02 0.02 0.02 0.02 0.02 0.02 0.02 0.02 0.03 0.03 0.04 0.05 0.06 0.08
0.00 0.00 0.00 0.00 0.00 0.00 0.00 0.00 0.00 0.00 0.00 0.00 0.00 0.00 0.00 0.00 0.00 0.00 0.00 0.00 0.00 0.00 0.00 0.00 0.00 0.00 0.00 0.00 0.00 0.00 0.00 0.00 0.00 0.00 0.00 0.00 0.00 0.00 0.00 0.00 0.00 0.00 0.00 0.00 0.00 0.01 0.02 0.03 0.04 0.04 0.04 0.02 0.02 0.02 0.02 0.02 0.03 0.02 0.02 0.01 0.01 0.02 0.02 0.03 0.04 0.05 0.07 0.08 0.09
0.00 0.00 0.00 0.00 0.00 0.00 0.00 0.00 0.00 0.00 0.00 0.00 0.00 0.00 0.00 0.00 0.00 0.00 0.00 0.00 0.00 0.00 0.00 0.00 0.00 0.00 0.00 0.00 0.00 0.00 0.00 0.00 0.00 0.00 0.00 0.00 0.00 0.00 0.00 0.00 0.00 0.00 0.00 0.00 0.01 0.01 0.02 0.03 0.04 0.04 0.04 0.04 0.03 0.03 0.02 0.03 0.03 0.02 0.02 0.02 0.01 0.01 0.02 0.03 0.06 0.07 0.08 0.09 0.10
0.00 0.00 0.00 0.00 0.00 0.00 0.00 0.00 0.00 0.00 0.00 0.00 0.00 0.00 0.00 0.00 0.00 0.00 0.00 0.00 0.00 0.00 0.00 0.00 0.00 0.00 0.00 0.00 0.00 0.00 0.00 0.00 0.00 0.00 0.00 0.00 0.00 0.00 0.00 0.00 0.00 0.00 0.00 0.00 0.00 0.01 0.02 0.02 0.03 0.04 0.04 0.04 0.04 0.03 0.03 0.03 0.03 0.02 0.02 0.02 0.01 0.01 0.02 0.03 0.06 0.08 0.09 0.09 0.09
0.00 0.00 0.00 0.00 0.00 0.00 0.00 0.00 0.00 0.00 0.00 0.00 0.00 0.00 0.00 0.00 0.00 0.00 0.00 0.00 0.00 0.00 0.00 0.00 0.00 0.00 0.00 0.00 0.00 0.00 0.00 0.00 0.00 0.00 0.00 0.00 0.00 0.00 0.00 0.00 0.00 0.00 0.00 0.00 0.00 0.01 0.01 0.02 0.03 0.03 0.04 0.04 0.04 0.03 0.03 0.03 0.03 0.03 0.02 0.02 0.02 0.02 0.02 0.03 0.05 0.07 0.09 0.08 0.07
0.00 0.00 0.00 0.00 0.00 0.00 0.00 0.00 0.00 0.00 0.00 0.00 0.00 0.00 0.00 0.00 0.00 0.00 0.00 0.00 0.00 0.00 0.00 0.00 0.00 0.00 0.00 0.00 0.00 0.00 0.00 0.00 0.00 0.00 0.00 0.00 0.00 0.00 0.00 0.00 0.00 0.00 0.00 0.00 0.00 0.00 0.01 0.02 0.02 0.03 0.03 0.04 0.03 0.03 0.03 0.03 0.03 0.02 0.02 0.02 0.02 0.02 0.02 0.03 0.04 0.06 0.07 0.07 0.07
0.00 0.00 0.00 0.00 0.00 0.00 0.00 0.00 0.00 0.00 0.00 0.00 0.00 0.00 0.00 0.00 0.00 0.00 0.00 0.00 0.00 0.00 0.00 0.00 0.00 0.00 0.00 0.00 0.00 0.00 0.00 0.00 0.00 0.00 0.00 0.00 0.00 0.00 0.00 0.00 0.00 0.00 0.00 0.00 0.00 0.00 0.00 0.01 0.01 0.02 0.03 0.03 0.03 0.03 0.03 0.03 0.02 0.02 0.02 0.02 0.02 0.02 0.02 0.03 0.03 0.04 0.05 0.05 0.06
0.00 0.00 0.00 0.00 0.00 0.00 0.00 0.00 0.00 0.00 0.00 0.00 0.00 0.00 0.00 0.00 0.00 0.00 0.00 0.00 0.00 0.00 0.00 0.00 0.00 0.00 0.00 0.00 0.00 0.00 0.00 0.00 0.00 0.00 0.00 0.00 0.00 0.00 0.00 0.00 0.00 0.00 0.00 0.00 0.00 0.00 0.00 0.00 0.00 0.01 0.02 0.03 0.03 0.03 0.03 0.02 0.02 0.02 0.02 0.02 0.02 0.02 0.03 0.03 0.03 0.03 0.03 0.04 0.07
0.00 0.00 0.00 0.00 0.00 0.00 0.00 0.00 0.00 0.00 0.00 0.00 0.00 0.00 0.00 0.00 0.00 0.00 0.00 0.00 0.00 0.00 0.00 0.00 0.00 0.00 0.00 0.00 0.00 0.00 0.00 0.00 0.00 0.00 0.00 0.00 0.00 0.00 0.00 0.00 0.00 0.00 0.00 0.00 0.00 0.00 0.00 0.00 0.00 0.00 0.01 0.02 0.02 0.03 0.02 0.02 0.02 0.02 0.02 0.02 0.02 0.02 0.03 0.03 0.03 0.03 0.03 0.04 0.08
0.00 0.00 0.00 0.00 0.00 0.00 0.00 0.00 0.00 0.00 0.00 0.00 0.00 0.00 0.00 0.00 0.00 0.00 0.00 0.00 0.00 0.00 0.00 0.00 0.00 0.00 0.00 0.00 0.00 0.00 0.00 0.00 0.00 0.00 0.00 0.00 0.00 0.00 0.00 0.00 0.00 0.00 0.00 0.00 0.00 0.00 0.00 0.00 0.00 0.00 0.00 0.01 0.01 0.01 0.01 0.01 0.01 0.02 0.02 0.02 0.02 0.02 0.02 0.03 0.03 0.03 0.03 0.04 0.07
0.00 0.00 0.00 0.00 0.00 0.00 0.00 0.00 0.00 0.00 0.00 0.00 0.00 0.00 0.00 0.00 0.00 0.00 0.00 0.00 0.00 0.00 0.00 0.00 0.00 0.00 0.00 0.00 0.00 0.00 0.00 0.00 0.00 0.00 0.00 0.00 0.00 0.00 0.00 0.00 0.00 0.00 0.00 0.00 0.00 0.00 0.00 0.00 0.00 0.00 0.00 0.00 0.00 0.00 0.00 0.01 0.01 0.01 0.01 0.01 0.01 0.02 0.02 0.02 0.02 0.02 0.02 0.02 0.03
0.00 0.00 0.00 0.00 0.00 0.00 0.00 0.00 0.00 0.00 0.00 0.00 0.00 0.00 0.00 0.00 0.00 0.00 0.00 0.00 0.00 0.00 0.00 0.00 0.00 0.00 0.00 0.00 0.00 0.00 0.00 0.00 0.00 0.00 0.00 0.00 0.00 0.00 0.00 0.00 0.00 0.00 0.00 0.01 0.00 0.00 0.00 0.00 0.00 0.00 0.00 0.00 0.00 0.00 0.00 0.00 0.00 0.00 0.01 0.01 0.01 0.01 0.01 0.01 0.01 0.01 0.01 0.01 0.01
0.00 0.00 0.00 0.00 0.00 0.00 0.00 0.00 0.00 0.00 0.00 0.00 0.00 0.00 0.00 0.00 0.00 0.00 0.00 0.00 0.00 0.00 0.00 0.00 0.00 0.00 0.00 0.00 0.00 0.00 0.00 0.00 0.00 0.00 0.00 0.00 0.00 0.00 0.00 0.00 0.00 0.00 0.00 0.00 0.00 0.00 0.00 0.00 0.00 0.00 0.00 0.00 0.00 0.00 0.00 0.00 0.00 0.00 0.00 0.00 0.00 0.00 0.00 0.01 0.00 0.01 0.01 0.01 0.01
0.00 0.00 0.00 0.00 0.00 0.00 0.00 0.00 0.00 0.00 0.00 0.00 0.00 0.00 0.00 0.00 0.00 0.00 0.00 0.00 0.00 0.00 0.00 0.00 0.00 0.00 0.00 0.00 0.00 0.00 0.00 0.00 0.00 0.00 0.00 0.00 0.00 0.00 0.00 0.00 0.00 0.00 0.00 0.01 0.00 0.00 0.00 0.00 0.00 0.00 0.00 0.00 0.00 0.00 0.00 0.00 0.00 0.00 0.00 0.00 0.00 0.00 0.00 0.00 0.00 0.00 0.00 0.01 0.01
0.00 0.00 0.00 0.00 0.00 0.00 0.00 0.00 0.00 0.00 0.00 0.00 0.00 0.00 0.00 0.00 0.00 0.00 0.00 0.00 0.00 0.00 0.00 0.00 0.00 0.00 0.00 0.00 0.00 0.00 0.00 0.00 0.00 0.00 0.00 0.00 0.00 0.00 0.00 0.00 0.00 0.00 0.00 0.01 0.01 0.01 0.00 0.00 0.00 0.00 0.00 0.00 0.00 0.00 0.00 0.00 0.00 0.00 0.00 0.00 0.00 0.00 0.00 0.00 0.00 0.00 0.00 0.00 0.00
0.00 0.00 0.00 0.00 0.00 0.00 0.00 0.00 0.00 0.00 0.00 0.00 0.00 0.00 0.00 0.00 0.00 0.00 0.00 0.00 0.00 0.00 0.00 0.00 0.00 0.00 0.00 0.00 0.00 0.00 0.00 0.00 0.00 0.00 0.00 0.00 0.00 0.00 0.00 0.00 0.00 0.00 0.01 0.02 0.01 0.01 0.00 0.00 0.00 0.00 0.00 0.00 0.00 0.00 0.00 0.00 0.00 0.00 0.00 0.00 0.00 0.00 0.00 0.00 0.00 0.00 0.00 0.00 0.00
0.00 0.00 0.00 0.00 0.00 0.00 0.00 0.00 0.00 0.00 0.00 0.00 0.00 0.00 0.00 0.00 0.00 0.00 0.00 0.00 0.00 0.00 0.00 0.00 0.00 0.00 0.00 0.00 0.00 0.00 0.00 0.00 0.00 0.00 0.00 0.00 0.00 0.00 0.00 0.00 0.00 0.00 0.01 0.03 0.02 0.01 0.00 0.00 0.00 0.00 0.00 0.00 0.00 0.00 0.00 0.00 0.00 0.00 0.00 0.00 0.00 0.00 0.00 0.00 0.00 0.00 0.00 0.00 0.00
0.00 0.00 0.00 0.00 0.00 0.00 0.00 0.00 0.00 0.00 0.00 0.00 0.00 0.00 0.00 0.00 0.00 0.00 0.00 0.00 0.00 0.00 0.00 0.00 0.00 0.00 0.00 0.00 0.00 0.00 0.00 0.00 0.00 0.00 0.00 0.00 0.00 0.00 0.00 0.00 0.00 0.00 0.01 0.05 0.03 0.02 0.01 0.00 0.00 0.00 0.00 0.00 0.00 0.00 0.00 0.00 0.00 0.00 0.00 0.00 0.00 0.00 0.00 0.00 0.00 0.00 0.00 0.00 0.00
0.00 0.00 0.00 0.00 0.00 0.00 0.00 0.00 0.00 0.00 0.00 0.00 0.00 0.00 0.00 0.00 0.00 0.00 0.00 0.00 0.00 0.00 0.00 0.00 0.00 0.00 0.00 0.00 0.00 0.00 0.00 0.00 0.00 0.00 0.00 0.00 0.00 0.00 0.00 0.00 0.00 0.00 0.02 0.08 0.06 0.04 0.03 0.02 0.01 0.00 0.00 0.00 0.00 0.00 0.00 0.00 0.00 0.00 0.00 0.00 0.00 0.00 0.00 0.00 0.00 0.00 0.00 0.00 0.00
0.00 0.00 0.00 0.00 0.00 0.00 0.00 0.00 0.00 0.00 0.00 0.00 0.00 0.00 0.00 0.00 0.00 0.00 0.00 0.00 0.00 0.00 0.00 0.00 0.00 0.00 0.00 0.00 0.00 0.00 0.00 0.00 0.00 0.00 0.00 0.00 0.00 0.00 0.00 0.00 0.00 0.00 0.03 0.09 0.08 0.06 0.05 0.05 0.02 0.00 0.00 0.00 0.00 0.00 0.00 0.00 0.00 0.00 0.00 0.00 0.00 0.00 0.00 0.00 0.00 0.00 0.00 0.00 0.00
0.00 0.00 0.00 0.00 0.00 0.00 0.00 0.00 0.00 0.00 0.00 0.00 0.00 0.00 0.00 0.00 0.00 0.00 0.00 0.00 0.00 0.00 0.00 0.00 0.00 0.00 0.00 0.00 0.00 0.00 0.00 0.00 0.00 0.00 0.00 0.00 0.00 0.00 0.00 0.00 0.00 0.00 0.02 0.08 0.08 0.07 0.05 0.06 0.05 0.03 0.01 0.00 0.00 0.00 0.00 0.00 0.00 0.00 0.00 0.00 0.00 0.00 0.00 0.00 0.00 0.00 0.00 0.00 0.00
0.00 0.00 0.00 0.00 0.00 0.00 0.00 0.00 0.00 0.00 0.00 0.00 0.00 0.00 0.00 0.00 0.00 0.00 0.00 0.00 0.00 0.00 0.00 0.00 0.00 0.00 0.00 0.00 0.00 0.00 0.00 0.00 0.00 0.00 0.00 0.00 0.00 0.00 0.00 0.00 0.00 0.00 0.01 0.03 0.08 0.08 0.06 0.06 0.07 0.05 0.03 0.00 0.00 0.00 0.00 0.00 0.00 0.00 0.00 0.00 0.00 0.00 0.00 0.00 0.00 0.00 0.00 0.00 0.00
0.00 0.00 0.00 0.00 0.00 0.00 0.00 0.00 0.00 0.00 0.00 0.00 0.00 0.00 0.00 0.00 0.00 0.00 0.00 0.00 0.00 0.00 0.00 0.00 0.00 0.00 0.00 0.00 0.00 0.00 0.00 0.00 0.00 0.00 0.00 0.00 0.00 0.00 0.00 0.00 0.00 0.00 0.00 0.00 0.07 0.08 0.06 0.06 0.07 0.06 0.05 0.02 0.00 0.00 0.00 0.00 0.00 0.00 0.00 0.00 0.00 0.00 0.00 0.00 0.00 0.00 0.00 0.00 0.00
0.00 0.00 0.00 0.00 0.00 0.00 0.00 0.00 0.00 0.00 0.00 0.00 0.00 0.00 0.00 0.00 0.00 0.00 0.00 0.00 0.00 0.00 0.00 0.00 0.00 0.00 0.00 0.00 0.00 0.00 0.00 0.00 0.00 0.00 0.00 0.00 0.00 0.00 0.00 0.00 0.00 0.00 0.00 0.00 0.04 0.07 0.07 0.06 0.07 0.07 0.05 0.04 0.01 0.00 0.00 0.00 0.00 0.00 0.00 0.00 0.00 0.00 0.00 0.00 0.00 0.00 0.00 0.00 0.00
0.00 0.00 0.00 0.00 0.00 0.00 0.00 0.00 0.00 0.00 0.00 0.00 0.00 0.00 0.00 0.00 0.00 0.00 0.00 0.00 0.00 0.00 0.00 0.00 0.00 0.00 0.00 0.00 0.00 0.00 0.00 0.00 0.00 0.00 0.00 0.00 0.00 0.00 0.00 0.00 0.00 0.00 0.00 0.00 0.01 0.03 0.06 0.07 0.07 0.07 0.06 0.06 0.03 0.01 0.00 0.00 0.00 0.00 0.00 0.00 0.00 0.00 0.00 0.00 0.00 0.00 0.00 0.00 0.00
0.00 0.00 0.00 0.00 0.00 0.00 0.00 0.00 0.00 0.00 0.00 0.00 0.00 0.00 0.00 0.00 0.00 0.00 0.00 0.00 0.00 0.00 0.00 0.00 0.00 0.00 0.00 0.00 0.00 0.00 0.00 0.00 0.00 0.00 0.00 0.00 0.00 0.00 0.00 0.00 0.00 0.00 0.00 0.00 0.00 0.01 0.03 0.06 0.07 0.07 0.06 0.06 0.04 0.02 0.01 0.00 0.00 0.00 0.00 0.00 0.00 0.00 0.00 0.00 0.00 0.00 0.00 0.00 0.00
0.00 0.00 0.00 0.00 0.00 0.00 0.00 0.00 0.00 0.00 0.00 0.00 0.00 0.00 0.00 0.00 0.00 0.00 0.00 0.00 0.00 0.00 0.00 0.00 0.00 0.00 0.00 0.00 0.00 0.00 0.00 0.00 0.00 0.00 0.00 0.00 0.00 0.00 0.00 0.00 0.00 0.00 0.00 0.00 0.00 0.00 0.01 0.05 0.06 0.06 0.06 0.06 0.04 0.02 0.01 0.00 0.00 0.00 0.00 0.00 0.00 0.00 0.00 0.00 0.00 0.00 0.00 0.00 0.00
0.00 0.00 0.00 0.00 0.00 0.00 0.00 0.00 0.00 0.00 0.00 0.00 0.00 0.00 0.00 0.00 0.00 0.00 0.00 0.00 0.00 0.00 0.00 0.00 0.00 0.00 0.00 0.00 0.00 0.00 0.00 0.00 0.00 0.00 0.00 0.00 0.00 0.00 0.00 0.00 0.00 0.00 0.00 0.00 0.00 0.00 0.01 0.02 0.05 0.06 0.05 0.04 0.03 0.01 0.00 0.00 0.00 0.00 0.00 0.00 0.00 0.00 0.00 0.00 0.00 0.00 0.00 0.00 0.00
0.00 0.00 0.00 0.00 0.00 0.00 0.00 0.00 0.00 0.00 0.00 0.00 0.00 0.00 0.00 0.00 0.00 0.00 0.00 0.00 0.00 0.00 0.00 0.00 0.00 0.00 0.00 0.00 0.00 0.00 0.00 0.00 0.00 0.00 0.00 0.00 0.00 0.00 0.00 0.00 0.00 0.00 0.00 0.00 0.00 0.00 0.00 0.00 0.03 0.04 0.04 0.02 0.01 0.00 0.00 0.00 0.00 0.00 0.00 0.00 0.00 0.00 0.00 0.00 0.00 0.00 0.00 0.00 0.00
0.00 0.00 0.00 0.00 0.00 0.00 0.00 0.00 0.00 0.00 0.00 0.00 0.00 0.00 0.00 0.00 0.00 0.00 0.00 0.00 0.00 0.00 0.00 0.00 0.00 0.00 0.00 0.00 0.00 0.00 0.00 0.00 0.00 0.00 0.00 0.00 0.00 0.00 0.00 0.00 0.00 0.00 0.00 0.00 0.00 0.00 0.00 0.00 0.00 0.02 0.02 0.01 0.01 0.00 0.00 0.00 0.00 0.00 0.00 0.00 0.00 0.00 0.00 0.00 0.00 0.00 0.00 0.00 0.00
0.00 0.00 0.00 0.00 0.00 0.00 0.00 0.00 0.00 0.00 0.00 0.00 0.00 0.00 0.00 0.00 0.00 0.00 0.00 0.00 0.00 0.00 0.00 0.00 0.00 0.00 0.00 0.00 0.00 0.00 0.00 0.00 0.00 0.00 0.00 0.00 0.00 0.00 0.00 0.00 0.00 0.00 0.00 0.00 0.00 0.00 0.00 0.00 0.00 0.01 0.01 0.01 0.00 0.00 0.00 0.00 0.00 0.00 0.00 0.00 0.00 0.00 0.00 0.00 0.00 0.00 0.00 0.00 0.00
0.00 0.00 0.00 0.00 0.00 0.00 0.00 0.00 0.00 0.00 0.00 0.00 0.00 0.00 0.00 0.00 0.00 0.00 0.00 0.00 0.00 0.00 0.00 0.00 0.00 0.00 0.00 0.00 0.00 0.00 0.00 0.00 0.00 0.00 0.00 0.00 0.00 0.00 0.00 0.00 0.00 0.00 0.00 0.00 0.00 0.00 0.00 0.00 0.00 0.00 0.00 0.01 0.00 0.00 0.00 0.00 0.00 0.00 0.00 0.00 0.00 0.00 0.00 0.00 0.00 0.00 0.00 0.00 0.00
0.00 0.00 0.00 0.00 0.00 0.00 0.00 0.00 0.00 0.00 0.00 0.00 0.00 0.00 0.00 0.00 0.00 0.00 0.00 0.00 0.00 0.00 0.00 0.00 0.00 0.00 0.00 0.00 0.00 0.00 0.00 0.00 0.00 0.00 0.00 0.00 0.00 0.00 0.00 0.00 0.00 0.00 0.00 0.00 0.00 0.00 0.00 0.00 0.00 0.00 0.00 0.00 0.00 0.00 0.00 0.00 0.00 0.00 0.00 0.00 0.00 0.00 0.00 0.00 0.00 0.00 0.00 0.00 0.00
0.00 0.00 0.00 0.00 0.00 0.00 0.00 0.00 0.00 0.00 0.00 0.00 0.00 0.00 0.00 0.00 0.00 0.00 0.00 0.00 0.00 0.00 0.00 0.00 0.00 0.00 0.00 0.00 0.00 0.00 0.00 0.00 0.00 0.00 0.00 0.00 0.00 0.00 0.00 0.00 0.00 0.00 0.00 0.00 0.00 0.00 0.00 0.00 0.00 0.00 0.00 0.00 0.00 0.00 0.00 0.00 0.01 0.01 0.00 0.00 0.00 0.00 0.00 0.00 0.00 0.00 0.00 0.00 0.00
0.00 0.00 0.00 0.00 0.00 0.00 0.00 0.00 0.00 0.00 0.00 0.00 0.00 0.00 0.00 0.00 0.00 0.00 0.00 0.00 0.00 0.00 0.00 0.00 0.00 0.00 0.00 0.00 0.00 0.00 0.00 0.00 0.00 0.00 0.00 0.00 0.00 0.00 0.00 0.00 0.00 0.00 0.00 0.00 0.00 0.00 0.00 0.00 0.00 0.00 0.00 0.00 0.00 0.00 0.00 0.01 0.01 0.01 0.01 0.00 0.00 0.00 0.00 0.00 0.00 0.00 0.00 0.00 0.00
0.00 0.00 0.00 0.00 0.00 0.00 0.00 0.00 0.00 0.00 0.00 0.00 0.00 0.00 0.00 0.00 0.00 0.00 0.00 0.00 0.00 0.00 0.00 0.00 0.00 0.00 0.00 0.00 0.00 0.00 0.00 0.00 0.00 0.00 0.00 0.00 0.00 0.00 0.00 0.00 0.00 0.00 0.00 0.00 0.00 0.00 0.00 0.00 0.00 0.00 0.00 0.00 0.00 0.00 0.00 0.01 0.01 0.01 0.01 0.01 0.00 0.00 0.00 0.00 0.00 0.00 0.00 0.00 0.00
MSLP
1032.68 1032.64 1032.64 1032.64 1032.60 1032.56 1032.48 1032.44 1032.32 1032.28 1032.20 1032.04 1031.88 1031.76 1031.64 1031.48 1031.32 1031.20 1031.04 1030.92 1030.76 1030.56 1030.40 1030.24 1030.04 1029.88 1029.68 1029.48 1029.32 1029.16 1028.96 1028.76 1028.56 1028.32 1028.08 1027.84 1027.64 1027.36 1027.16 1026.92 1026.76 1026.52 1026.28 1026.04 1025.76 1025.40 1025.04 1024.68 1024.36 1024.04 1023.72 1023.40 1023.16 1022.96 1022.84 1022.76 1022.64 1022.56 1022.40 1022.28 1022.12 1022.00 1021.84 1021.76 1021.60 1021.48 1021.32 1021.20 1021.12
1032.56 1032.56 1032.56 1032.56 1032.56 1032.48 1032.40 1032.32 1032.24 1032.16 1032.04 1031.96 1031.84 1031.72 1031.60 1031.44 1031.28 1031.12 1030.96 1030.84 1030.72 1030.56 1030.36 1030.20 1030.00 1029.80 1029.64 1029.48 1029.28 1029.12 1028.92 1028.72 1028.48 1028.24 1028.04 1027.76 1027.52 1027.32 1027.12 1026.92 1026.72 1026.48 1026.24 1026.00 1025.68 1025.32 1024.96 1024.60 1024.28 1023.96 1023.64 1023.32 1023.04 1022.88 1022.72 1022.60 1022.52 1022.36 1022.20 1022.08 1022.00 1021.88 1021.76 1021.60 1021.40 1021.28 1021.12 1021.04 1020.92
1032.48 1032.48 1032.48 1032.48 1032.44 1032.36 1032.32 1032.20 1032.12 1032.04 1031.92 1031.88 1031.76 1031.64 1031.48 1031.32 1031.20 1031.04 1030.92 1030.76 1030.64 1030.48 1030.32 1030.08 1029.92 1029.76 1029.56 1029.36 1029.20 1029.04 1028.88 1028.68 1028.44 1028.20 1027.96 1027.76 1027.48 1027.28 1027.08 1026.88 1026.64 1026.44 1026.20 1025.92 1025.64 1025.32 1024.92 1024.56 1024.24 1023.92 1023.60 1023.32 1023.04 1022.84 1022.64 1022.48 1022.32 1022.24 1022.12 1022.00 1021.92 1021.76 1021.64 1021.44 1021.28 1021.12 1020.96 1020.80 1020.68
1032.44 1032.40 1032.40 1032.36 1032.32 1032.28 1032.20 1032.20 1032.08 1031.96 1031.88 1031.80 1031.68 1031.56 1031.40 1031.24 1031.08 1030.96 1030.80 1030.64 1030.48 1030.36 1030.20 1030.04 1029.88 1029.68 1029.48 1029.32 1029.16 1028.96 1028.80 1028.64 1028.40 1028.16 1027.92 1027.72 1027.48 1027.24 1027.04 1026.88 1026.64 1026.36 1026.12 1025.92 1025.60 1025.20 1024.84 1024.52 1024.24 1023.92 1023.64 1023.36 1023.08 1022.84 1022.60 1022.44 1022.24 1022.16 1022.08 1021.92 1021.84 1021.72 1021.56 1021.36 1021.20 1021.00 1020.84 1020.68 1020.56
1032.32 1032.32 1032.36 1032.32 1032.32 1032.28 1032.20 1032.16 1032.04 1031.92 1031.84 1031.76 1031.64 1031.48 1031.32 1031.16 1031.00 1030.84 1030.68 1030.56 1030.40 1030.24 1030.12 1030.00 1029.84 1029.64 1029.44 1029.28 1029.08 1028.92 1028.76 1028.56 1028.36 1028.16 1027.92 1027.68 1027.48 1027.24 1027.04 1026.84 1026.64 1026.36 1026.12 1025.88 1025.56 1025.20 1024.88 1024.52 1024.24 1023.96 1023.68 1023.40 1023.16 1022.92 1022.64 1022.44 1022.24 1022.08 1021.96 1021.88 1021.72 1021.60 1021.44 1021.28 1021.08 1020.92 1020.72 1020.60 1020.48
1032.28 1032.28 1032.32 1032.32 1032.28 1032.24 1032.20 1032.12 1032.04 1031.92 1031.80 1031.72 1031.56 1031.36 1031.20 1031.04 1030.92 1030.76 1030.64 1030.48 1030.32 1030.20 1030.04 1029.92 1029.76 1029.56 1029.40 1029.20 1029.04 1028.88 1028.72 1028.52 1028.32 1028.16 1027.92 1027.68 1027.44 1027.20 1027.04 1026.84 1026.60 1026.36 1026.12 1025.88 1025.56 1025.24 1024.92 1024.52 1024.24 1023.96 1023.72 1023.48 1023.24 1022.96 1022.72 1022.44 1022.20 1022.00 1021.84 1021.76 1021.60 1021.48 1021.32 1021.20 1021.04 1020.84 1020.64 1020.48 1020.32
1032.28 1032.28 1032.28 1032.28 1032.24 1032.20 1032.16 1032.08 1032.00 1031.88 1031.76 1031.64 1031.44 1031.24 1031.08 1031.00 1030.84 1030.72 1030.56 1030.44 1030.24 1030.12 1029.96 1029.84 1029.64 1029.48 1029.32 1029.20 1029.00 1028.84 1028.68 1028.52 1028.32 1028.08 1027.88 1027.64 1027.44 1027.24 1027.04 1026.80 1026.60 1026.36 1026.12 1025.88 1025.60 1025.28 1024.92 1024.60 1024.28 1024.04 1023.84 1023.60 1023.32 1023.04 1022.76 1022.52 1022.24 1021.96 1021.76 1021.64 1021.48 1021.36 1021.20 1021.08 1020.92 1020.76 1020.52 1020.28 1020.16
1032.24 1032.20 1032.20 1032.20 1032.20 1032.16 1032.08 1032.00 1031.92 1031.80 1031.64 1031.48 1031.32 1031.20 1031.04 1030.92 1030.76 1030.64 1030.48 1030.32 1030.20 1030.04 1029.92 1029.76 1029.64 1029.48 1029.32 1029.16 1028.96 1028.80 1028.64 1028.48 1028.28 1028.04 1027.84 1027.64 1027.40 1027.20 1027.00 1026.80 1026.56 1026.32 1026.12 1025.88 1025.64 1025.32 1024.96 1024.64 1024.36 1024.16 1023.96 1023.72 1023.48 1023.20 1022.92 1022.64 1022.32 1022.04 1021.76 1021.56 1021.36 1021.20 1021.08 1020.92 1020.76 1020.60 1020.40 1020.12 1019.92
1032.16 1032.12 1032.12 1032.08 1032.08 1032.04 1031.96 1031.88 1031.80 1031.72 1031.56 1031.36 1031.24 1031.08 1030.96 1030.80 1030.68 1030.52 1030.40 1030.24 1030.12 1030.00 1029.88 1029.76 1029.56 1029.40 1029.24 1029.08 1028.92 1028.76 1028.64 1028.44 1028.24 1028.04 1027.80 1027.64 1027.40 1027.20 1027.04 1026.80 1026.56 1026.32 1026.12 1025.92 1025.64 1025.32 1025.00 1024.68 1024.44 1024.28 1024.08 1023.92 1023.64 1023.40 1023.08 1022.80 1022.48 1022.20 1021.88 1021.56 1021.32 1021.16 1021.00 1020.76 1020.60 1020.44 1020.24 1020.00 1019.76
1032.04 1032.04 1032.04 1032.00 1031.96 1031.92 1031.88 1031.80 1031.72 1031.60 1031.44 1031.28 1031.12 1031.00 1030.88 1030.72 1030.64 1030.48 1030.32 1030.20 1030.08 1029.96 1029.80 1029.64 1029.48 1029.32 1029.20 1029.04 1028.88 1028.72 1028.56 1028.40 1028.20 1028.00 1027.80 1027.64 1027.36 1027.20 1027.04 1026.84 1026.64 1026.40 1026.16 1025.92 1025.68 1025.36 1025.00 1024.72 1024.52 1024.36 1024.20 1024.04 1023.80 1023.52 1023.20 1022.92 1022.68 1022.36 1022.04 1021.76 1021.48 1021.20 1021.00 1020.76 1020.48 1020.28 1020.08 1019.84 1019.60
1031.92 1031.92 1031.92 1031.92 1031.88 1031.84 1031.80 1031.72 1031.60 1031.48 1031.32 1031.16 1031.00 1030.92 1030.80 1030.64 1030.52 1030.40 1030.28 1030.16 1030.04 1029.92 1029.76 1029.60 1029.48 1029.32 1029.16 1028.96 1028.80 1028.64 1028.48 1028.32 1028.16 1027.96 1027.76 1027.56 1027.36 1027.20 1027.04 1026.88 1026.64 1026.44 1026.20 1025.96 1025.76 1025.40 1025.04 1024.76 1024.56 1024.40 1024.24 1024.04 1023.88 1023.60 1023.32 1023.04 1022.76 1022.52 1022.24 1021.96 1021.72 1021.44 1021.16 1020.88 1020.60 1020.32 1020.04 1019.76 1019.48
1031.84 1031.84 1031.84 1031.80 1031.80 1031.76 1031.68 1031.60 1031.48 1031.32 1031.20 1031.04 1030.92 1030.76 1030.68 1030.56 1030.44 1030.32 1030.24 1030.08 1029.92 1029.80 1029.68 1029.60 1029.48 1029.28 1029.08 1028.92 1028.76 1028.60 1028.44 1028.24 1028.08 1027.92 1027.72 1027.48 1027.32 1027.20 1027.04 1026.84 1026.64 1026.44 1026.20 1026.04 1025.80 1025.48 1025.16 1024.84 1024.64 1024.44 1024.24 1024.08 1023.92 1023.68 1023.44 1023.20 1022.92 1022.60 1022.36 1022.12 1021.92 1021.64 1021.36 1021.08 1020.80 1020.48 1020.20 1019.92 1019.60
1031.76 1031.76 1031.76 1031.76 1031.72 1031.64 1031.56 1031.44 1031.32 1031.20 1031.04 1030.92 1030.84 1030.72 1030.60 1030.48 1030.36 1030.28 1030.16 1030.00 1029.88 1029.76 1029.64 1029.52 1029.40 1029.20 1029.04 1028.84 1028.68 1028.52 1028.32 1028.20 1028.00 1027.84 1027.64 1027.48 1027.32 1027.16 1026.96 1026.76 1026.60 1026.40 1026.20 1026.04 1025.88 1025.60 1025.24 1024.92 1024.68 1024.48 1024.32 1024.12 1023.92 1023.76 1023.52 1023.28 1023.04 1022.76 1022.48 1022.28 1022.04 1021.80 1021.56 1021.32 1021.04 1020.72 1020.40 1020.04 1019.76
1031.68 1031.64 1031.64 1031.60 1031.56 1031.48 1031.44 1031.32 1031.24 1031.12 1030.96 1030.84 1030.72 1030.64 1030.52 1030.40 1030.32 1030.20 1030.04 1029.92 1029.84 1029.72 1029.60 1029.44 1029.28 1029.12 1028.96 1028.76 1028.64 1028.44 1028.24 1028.08 1027.92 1027.76 1027.60 1027.44 1027.28 1027.12 1026.92 1026.76 1026.56 1026.40 1026.20 1026.04 1025.92 1025.64 1025.32 1025.00 1024.76 1024.56 1024.36 1024.20 1024.00 1023.76 1023.60 1023.32 1023.16 1022.92 1022.64 1022.44 1022.20 1022.00 1021.76 1021.48 1021.20 1020.92 1020.60 1020.28 1020.00
1031.56 1031.52 1031.48 1031.48 1031.44 1031.40 1031.32 1031.24 1031.16 1031.04 1030.92 1030.76 1030.64 1030.56 1030.48 1030.36 1030.24 1030.12 1030.00 1029.88 1029.76 1029.64 1029.48 1029.36 1029.20 1029.04 1028.88 1028.76 1028.52 1028.32 1028.16 1028.00 1027.84 1027.68 1027.52 1027.36 1027.20 1027.04 1026.88 1026.68 1026.52 1026.36 1026.20 1026.04 1025.92 1025.64 1025.32 1025.04 1024.76 1024.64 1024.48 1024.28 1024.04 1023.84 1023.64 1023.44 1023.24 1023.04 1022.80 1022.56 1022.36 1022.20 1021.92 1021.68 1021.40 1021.08 1020.80 1020.52 1020.20
1031.48 1031.44 1031.40 1031.36 1031.32 1031.32 1031.24 1031.16 1031.04 1030.92 1030.84 1030.72 1030.64 1030.52 1030.44 1030.32 1030.20 1030.04 1029.96 1029.84 1029.72 1029.60 1029.44 1029.28 1029.12 1028.96 1028.80 1028.64 1028.40 1028.24 1028.08 1027.92 1027.76 1027.60 1027.48 1027.28 1027.12 1026.92 1026.76 1026.64 1026.48 1026.32 1026.20 1026.04 1025.92 1025.64 1025.32 1025.04 1024.80 1024.64 1024.52 1024.36 1024.16 1023.92 1023.72 1023.52 1023.32 1023.08 1022.88 1022.64 1022.48 1022.28 1022.08 1021.84 1021.56 1021.28 1021.04 1020.72 1020.40
1031.32 1031.32 1031.32 1031.28 1031.24 1031.20 1031.16 1031.08 1031.00 1030.92 1030.76 1030.64 1030.60 1030.48 1030.40 1030.24 1030.12 1030.04 1029.92 1029.76 1029.64 1029.48 1029.32 1029.20 1029.04 1028.88 1028.68 1028.48 1028.32 1028.16 1028.00 1027.84 1027.64 1027.52 1027.36 1027.24 1027.04 1026.88 1026.72 1026.52 1026.40 1026.28 1026.16 1026.00 1025.84 1025.60 1025.28 1025.00 1024.84 1024.72 1024.56 1024.40 1024.24 1024.04 1023.80 1023.60 1023.32 1023.12 1022.92 1022.68 1022.52 1022.36 1022.20 1021.92 1021.68 1021.44 1021.20 1020.92 1020.60
1031.24 1031.20 1031.20 1031.20 1031.16 1031.08 1031.04 1031.00 1030.92 1030.84 1030.72 1030.64 1030.52 1030.44 1030.32 1030.20 1030.12 1030.00 1029.84 1029.72 1029.56 1029.40 1029.24 1029.08 1028.92 1028.76 1028.60 1028.40 1028.24 1028.08 1027.92 1027.76 1027.60 1027.44 1027.32 1027.16 1027.00 1026.80 1026.64 1026.48 1026.32 1026.20 1026.04 1025.96 1025.76 1025.48 1025.20 1024.96 1024.84 1024.72 1024.60 1024.44 1024.28 1024.08 1023.88 1023.64 1023.36 1023.16 1022.92 1022.72 1022.56 1022.36 1022.20 1022.00 1021.76 1021.56 1021.32 1021.08 1020.76
1031.12 1031.08 1031.08 1031.08 1031.04 1031.00 1030.96 1030.92 1030.84 1030.72 1030.60 1030.52 1030.44 1030.32 1030.20 1030.12 1030.04 1029.92 1029.76 1029.64 1029.48 1029.32 1029.16 1028.96 1028.80 1028.64 1028.48 1028.32 1028.16 1028.00 1027.84 1027.68 1027.52 1027.36 1027.20 1027.04 1026.88 1026.72 1026.52 1026.36 1026.20 1026.04 1025.92 1025.84 1025.68 1025.44 1025.16 1024.92 1024.76 1024.68 1024.56 1024.44 1024.24 1024.04 1023.84 1023.60 1023.32 1023.12 1022.92 1022.76 1022.56 1022.40 1022.20 1022.04 1021.84 1021.64 1021.40 1021.20 1020.92
1031.04 1031.00 1031.00 1030.96 1030.92 1030.92 1030.84 1030.76 1030.68 1030.60 1030.48 1030.36 1030.32 1030.20 1030.08 1030.00 1029.92 1029.80 1029.68 1029.52 1029.36 1029.20 1029.04 1028.88 1028.72 1028.52 1028.32 1028.20 1028.04 1027.92 1027.76 1027.60 1027.40 1027.24 1027.08 1026.92 1026.76 1026.60 1026.40 1026.24 1026.08 1025.92 1025.76 1025.68 1025.52 1025.32 1025.04 1024.88 1024.76 1024.64 1024.52 1024.40 1024.20 1024.00 1023.76 1023.56 1023.32 1023.08 1022.92 1022.72 1022.56 1022.40 1022.24 1022.04 1021.88 1021.64 1021.40 1021.20 1020.96
1030.92 1030.92 1030.92 1030.88 1030.88 1030.80 1030.76 1030.64 1030.56 1030.48 1030.36 1030.28 1030.20 1030.08 1029.96 1029.88 1029.76 1029.68 1029.56 1029.40 1029.24 1029.08 1028.92 1028.76 1028.60 1028.44 1028.28 1028.08 1027.92 1027.76 1027.64 1027.48 1027.32 1027.12 1026.92 1026.76 1026.64 1026.48 1026.28 1026.12 1025.92 1025.76 1025.60 1025.48 1025.36 1025.20 1025.00 1024.76 1024.64 1024.52 1024.44 1024.32 1024.16 1024.00 1023.76 1023.48 1023.24 1023.04 1022.84 1022.64 1022.48 1022.32 1022.20 1022.04 1021.88 1021.64 1021.40 1021.20 1020.96
1030.84 1030.84 1030.84 1030.80 1030.76 1030.72 1030.64 1030.56 1030.48 1030.36 1030.28 1030.16 1030.04 1029.92 1029.84 1029.76 1029.64 1029.56 1029.44 1029.32 1029.16 1028.96 1028.76 1028.64 1028.48 1028.32 1028.20 1028.04 1027.84 1027.68 1027.52 1027.36 1027.20 1027.00 1026.80 1026.64 1026.48 1026.32 1026.16 1026.00 1025.80 1025.64 1025.48 1025.36 1025.20 1025.04 1024.84 1024.64 1024.52 1024.40 1024.32 1024.20 1024.04 1023.92 1023.68 1023.48 1023.20 1022.96 1022.76 1022.60 1022.40 1022.24 1022.12 1022.00 1021.80 1021.64 1021.40 1021.20 1021.00
1030.80 1030.80 1030.80 1030.76 1030.72 1030.64 1030.56 1030.44 1030.36 1030.24 1030.16 1030.04 1029.92 1029.80 1029.72 1029.64 1029.52 1029.44 1029.32 1029.20 1029.04 1028.84 1028.68 1028.60 1028.40 1028.24 1028.12 1027.96 1027.76 1027.60 1027.40 1027.20 1027.04 1026.84 1026.68 1026.52 1026.32 1026.16 1026.04 1025.88 1025.68 1025.48 1025.32 1025.24 1025.04 1024.84 1024.64 1024.48 1024.32 1024.20 1024.16 1024.04 1023.92 1023.76 1023.56 1023.32 1023.16 1022.92 1022.72 1022.52 1022.32 1022.20 1022.04 1021.92 1021.72 1021.56 1021.32 1021.16 1020.96
1030.80 1030.80 1030.76 1030.68 1030.64 1030.52 1030.48 1030.36 1030.28 1030.16 1030.04 1029.92 1029.80 1029.72 1029.60 1029.48 1029.40 1029.32 1029.20 1029.04 1028.88 1028.72 1028.60 1028.48 1028.32 1028.16 1028.00 1027.80 1027.60 1027.40 1027.24 1027.04 1026.88 1026.72 1026.52 1026.36 1026.20 1026.04 1025.88 1025.72 1025.52 1025.32 1025.20 1025.12 1024.88 1024.56 1024.32 1024.12 1024.04 1024.00 1023.92 1023.92 1023.80 1023.64 1023.44 1023.20 1023.04 1022.88 1022.72 1022.48 1022.28 1022.12 1021.96 1021.76 1021.64 1021.44 1021.24 1021.04 1020.88
1030.76 1030.76 1030.68 1030.64 1030.52 1030.48 1030.36 1030.28 1030.20 1030.04 1029.92 1029.76 1029.68 1029.56 1029.48 1029.36 1029.28 1029.16 1029.04 1028.92 1028.76 1028.64 1028.48 1028.32 1028.16 1028.00 1027.80 1027.60 1027.40 1027.24 1027.08 1026.92 1026.76 1026.56 1026.40 1026.20 1026.04 1025.92 1025.72 1025.52 1025.32 1025.20 1025.12 1025.00 1024.60 1024.16 1023.88 1023.80 1023.80 1023.76 1023.76 1023.72 1023.60 1023.48 1023.28 1023.04 1022.92 1022.76 1022.64 1022.44 1022.20 1022.00 1021.84 1021.68 1021.48 1021.28 1021.12 1020.92 1020.76
1030.72 1030.68 1030.64 1030.56 1030.48 1030.40 1030.32 1030.20 1030.04 1029.92 1029.80 1029.68 1029.56 1029.44 1029.32 1029.24 1029.16 1029.04 1028.92 1028.76 1028.60 1028.44 1028.32 1028.16 1028.00 1027.80 1027.60 1027.40 1027.20 1027.04 1026.92 1026.76 1026.64 1026.48 1026.28 1026.08 1025.92 1025.76 1025.56 1025.36 1025.20 1025.08 1025.00 1024.76 1024.36 1023.92 1023.64 1023.60 1023.56 1023.60 1023.60 1023.52 1023.44 1023.28 1023.12 1022.92 1022.80 1022.68 1022.52 1022.32 1022.08 1021.88 1021.72 1021.52 1021.32 1021.16 1020.96 1020.80 1020.68
1030.60 1030.60 1030.56 1030.48 1030.44 1030.32 1030.24 1030.16 1030.00 1029.84 1029.68 1029.52 1029.40 1029.32 1029.20 1029.16 1029.04 1028.92 1028.76 1028.60 1028.48 1028.32 1028.20 1028.00 1027.80 1027.60 1027.36 1027.20 1027.04 1026.92 1026.76 1026.64 1026.48 1026.32 1026.16 1025.96 1025.76 1025.64 1025.44 1025.20 1025.04 1024.92 1024.80 1024.52 1024.20 1023.84 1023.52 1023.32 1023.36 1023.44 1023.44 1023.40 1023.28 1023.12 1022.96 1022.80 1022.68 1022.56 1022.40 1022.20 1022.00 1021.76 1021.60 1021.44 1021.24 1021.04 1020.88 1020.72 1020.60
1030.48 1030.48 1030.48 1030.40 1030.32 1030.24 1030.16 1030.04 1029.92 1029.72 1029.52 1029.40 1029.32 1029.20 1029.08 1029.00 1028.88 1028.76 1028.60 1028.44 1028.28 1028.16 1028.00 1027.80 1027.64 1027.40 1027.20 1027.04 1026.92 1026.76 1026.64 1026.52 1026.32 1026.12 1026.00 1025.84 1025.64 1025.48 1025.28 1025.08 1024.92 1024.76 1024.60 1024.32 1024.04 1023.76 1023.48 1023.20 1023.12 1023.16 1023.20 1023.20 1023.08 1023.00 1022.88 1022.72 1022.56 1022.36 1022.20 1022.04 1021.88 1021.64 1021.44 1021.28 1021.12 1020.96 1020.80 1020.64 1020.48
1030.48 1030.44 1030.36 1030.32 1030.24 1030.12 1030.04 1029.92 1029.76 1029.56 1029.40 1029.28 1029.16 1029.04 1028.96 1028.84 1028.76 1028.64 1028.48 1028.32 1028.16 1027.96 1027.80 1027.64 1027.44 1027.24 1027.08 1026.92 1026.76 1026.64 1026.48 1026.32 1026.20 1026.00 1025.84 1025.68 1025.52 1025.32 1025.16 1024.92 1024.76 1024.60 1024.36 1024.16 1023.92 1023.64 1023.40 1023.16 1022.92 1022.80 1022.84 1022.84 1022.84 1022.80 1022.68 1022.56 1022.40 1022.20 1022.04 1021.88 1021.72 1021.56 1021.36 1021.20 1021.04 1020.88 1020.72 1020.60 1020.44
1030.44 1030.40 1030.32 1030.24 1030.12 1030.00 1029.88 1029.76 1029.56 1029.44 1029.28 1029.16 1029.00 1028.88 1028.80 1028.72 1028.60 1028.48 1028.32 1028.16 1028.00 1027.84 1027.64 1027.48 1027.32 1027.12 1026.96 1026.80 1026.64 1026.48 1026.32 1026.20 1026.00 1025.88 1025.72 1025.56 1025.36 1025.20 1025.00 1024.80 1024.64 1024.48 1024.28 1024.04 1023.80 1023.60 1023.32 1023.12 1022.84 1022.60 1022.52 1022.68 1022.76 1022.68 1022.56 1022.48 1022.32 1022.08 1021.88 1021.72 1021.60 1021.44 1021.28 1021.08 1020.92 1020.76 1020.60 1020.52 1020.36
1030.36 1030.32 1030.20 1030.04 1029.96 1029.80 1029.68 1029.56 1029.44 1029.28 1029.12 1028.96 1028.88 1028.76 1028.64 1028.52 1028.44 1028.32 1028.16 1027.96 1027.80 1027.64 1027.52 1027.36 1027.20 1027.04 1026.84 1026.64 1026.48 1026.32 1026.20 1026.00 1025.88 1025.76 1025.60 1025.40 1025.20 1025.00 1024.80 1024.64 1024.48 1024.32 1024.12 1023.88 1023.68 1023.44 1023.20 1023.04 1022.84 1022.56 1022.40 1022.48 1022.52 1022.48 1022.44 1022.32 1022.16 1021.96 1021.76 1021.52 1021.40 1021.32 1021.20 1021.04 1020.84 1020.64 1020.48 1020.36 1020.28
1030.20 1030.08 1030.00 1029.88 1029.76 1029.64 1029.52 1029.40 1029.28 1029.12 1028.96 1028.80 1028.68 1028.60 1028.48 1028.36 1028.24 1028.12 1028.00 1027.84 1027.68 1027.52 1027.40 1027.20 1027.04 1026.88 1026.72 1026.52 1026.36 1026.20 1026.04 1025.92 1025.76 1025.60 1025.48 1025.28 1025.08 1024.92 1024.68 1024.48 1024.32 1024.16 1023.96 1023.76 1023.52 1023.32 1023.12 1022.92 1022.76 1022.52 1022.32 1022.20 1022.24 1022.32 1022.32 1022.20 1022.00 1021.76 1021.52 1021.32 1021.20 1021.12 1021.00 1020.88 1020.68 1020.48 1020.32 1020.20 1020.12
1029.92 1029.84 1029.76 1029.68 1029.60 1029.48 1029.36 1029.24 1029.08 1028.96 1028.80 1028.68 1028.52 1028.44 1028.32 1028.20 1028.08 1027.96 1027.88 1027.76 1027.60 1027.44 1027.24 1027.08 1026.92 1026.76 1026.60 1026.40 1026.24 1026.08 1025.96 1025.76 1025.64 1025.48 1025.28 1025.12 1024.96 1024.76 1024.56 1024.32 1024.16 1023.96 1023.76 1023.56 1023.36 1023.16 1022.96 1022.80 1022.68 1022.48 1022.24 1022.04 1022.04 1022.04 1022.04 1021.92 1021.76 1021.52 1021.32 1021.08 1020.92 1020.76 1020.64 1020.56 1020.44 1020.32 1020.20 1020.08 1019.96
1029.64 1029.60 1029.56 1029.48 1029.36 1029.32 1029.20 1029.04 1028.92 1028.76 1028.64 1028.48 1028.36 1028.24 1028.16 1028.04 1027.92 1027.80 1027.68 1027.60 1027.44 1027.28 1027.12 1026.96 1026.80 1026.64 1026.52 1026.32 1026.20 1026.04 1025.88 1025.68 1025.52 1025.36 1025.20 1025.00 1024.80 1024.60 1024.36 1024.20 1024.00 1023.80 1023.64 1023.40 1023.20 1023.00 1022.84 1022.68 1022.52 1022.36 1022.20 1021.96 1021.84 1021.76 1021.68 1021.56 1021.40 1021.20 1021.04 1020.80 1020.60 1020.48 1020.32 1020.28 1020.20 1020.16 1020.04 1019.96 1019.84
1029.44 1029.36 1029.32 1029.24 1029.16 1029.04 1028.96 1028.88 1028.76 1028.64 1028.48 1028.32 1028.20 1028.08 1027.96 1027.88 1027.76 1027.64 1027.52 1027.40 1027.28 1027.16 1027.00 1026.88 1026.72 1026.56 1026.40 1026.24 1026.12 1025.96 1025.76 1025.60 1025.44 1025.24 1025.04 1024.88 1024.68 1024.44 1024.20 1024.00 1023.80 1023.64 1023.44 1023.20 1023.04 1022.88 1022.68 1022.56 1022.36 1022.20 1022.04 1021.88 1021.68 1021.48 1021.32 1021.20 1021.04 1020.92 1020.76 1020.56 1020.40 1020.20 1020.04 1020.00 1019.96 1019.92 1019.92 1019.80 1019.68
1029.20 1029.16 1029.08 1029.00 1028.92 1028.88 1028.76 1028.68 1028.60 1028.48 1028.32 1028.20 1028.04 1027.92 1027.80 1027.68 1027.60 1027.48 1027.36 1027.28 1027.12 1027.00 1026.84 1026.68 1026.56 1026.40 1026.24 1026.12 1026.00 1025.84 1025.68 1025.48 1025.32 1025.12 1024.92 1024.72 1024.48 1024.28 1024.04 1023.80 1023.64 1023.44 1023.24 1023.08 1022.92 1022.76 1022.56 1022.36 1022.20 1022.04 1021.88 1021.72 1021.52 1021.32 1021.08 1020.92 1020.80 1020.72 1020.60 1020.44 1020.24 1020.04 1019.80 1019.72 1019.64 1019.64 1019.64 1019.60 1019.52
1028.92 1028.92 1028.84 1028.76 1028.72 1028.64 1028.60 1028.48 1028.40 1028.28 1028.16 1028.04 1027.92 1027.76 1027.64 1027.52 1027.44 1027.32 1027.20 1027.12 1027.00 1026.84 1026.68 1026.52 1026.40 1026.28 1026.12 1025.96 1025.88 1025.72 1025.56 1025.44 1025.20 1025.00 1024.76 1024.56 1024.36 1024.12 1023.92 1023.64 1023.44 1023.24 1023.08 1022.92 1022.76 1022.60 1022.40 1022.20 1022.04 1021.88 1021.72 1021.60 1021.40 1021.20 1021.00 1020.80 1020.68 1020.52 1020.40 1020.28 1020.12 1019.88 1019.64 1019.48 1019.40 1019.32 1019.32 1019.32 1019.32
1028.64 1028.64 1028.64 1028.64 1028.56 1028.48 1028.40 1028.32 1028.24 1028.12 1028.00 1027.88 1027.72 1027.60 1027.48 1027.36 1027.28 1027.20 1027.08 1027.00 1026.88 1026.72 1026.56 1026.40 1026.28 1026.12 1025.96 1025.84 1025.72 1025.56 1025.44 1025.28 1025.12 1024.92 1024.64 1024.44 1024.24 1024.00 1023.76 1023.48 1023.28 1023.12 1022.96 1022.80 1022.60 1022.44 1022.24 1022.04 1021.88 1021.72 1021.60 1021.48 1021.32 1021.08 1020.92 1020.72 1020.52 1020.36 1020.24 1020.08 1019.92 1019.68 1019.48 1019.32 1019.20 1019.08 1019.04 1019.00 1018.92
1028.40 1028.40 1028.44 1028.40 1028.36 1028.32 1028.28 1028.16 1028.04 1027.92 1027.80 1027.68 1027.56 1027.44 1027.32 1027.24 1027.16 1027.04 1026.92 1026.88 1026.76 1026.60 1026.40 1026.24 1026.08 1025.96 1025.80 1025.68 1025.56 1025.40 1025.24 1025.08 1024.92 1024.76 1024.52 1024.32 1024.08 1023.88 1023.64 1023.40 1023.16 1022.96 1022.80 1022.64 1022.48 1022.32 1022.12 1021.92 1021.76 1021.56 1021.44 1021.32 1021.20 1021.04 1020.84 1020.60 1020.36 1020.20 1020.04 1019.88 1019.68 1019.48 1019.28 1019.16 1019.04 1018.88 1018.76 1018.68 1018.48
1028.20 1028.20 1028.20 1028.20 1028.16 1028.12 1028.04 1027.96 1027.84 1027.76 1027.64 1027.52 1027.40 1027.32 1027.20 1027.12 1027.00 1026.92 1026.80 1026.72 1026.60 1026.44 1026.24 1026.04 1025.92 1025.76 1025.64 1025.48 1025.36 1025.20 1025.04 1024.88 1024.72 1024.56 1024.32 1024.16 1023.92 1023.72 1023.48 1023.28 1023.04 1022.88 1022.72 1022.52 1022.36 1022.16 1021.96 1021.76 1021.60 1021.36 1021.24 1021.20 1021.08 1020.92 1020.76 1020.48 1020.24 1020.00 1019.80 1019.64 1019.44 1019.20 1019.00 1018.80 1018.72 1018.60 1018.48 1018.32 1018.20
1027.96 1028.00 1028.04 1028.00 1028.00 1027.92 1027.88 1027.76 1027.64 1027.56 1027.48 1027.36 1027.28 1027.20 1027.08 1026.96 1026.84 1026.72 1026.64 1026.52 1026.40 1026.24 1026.08 1025.92 1025.76 1025.60 1025.48 1025.32 1025.16 1025.00 1024.80 1024.64 1024.48 1024.32 1024.16 1023.96 1023.76 1023.60 1023.36 1023.16 1022.92 1022.76 1022.60 1022.44 1022.20 1022.04 1021.80 1021.64 1021.40 1021.20 1021.08 1021.04 1020.92 1020.76 1020.60 1020.32 1020.04 1019.80 1019.52 1019.32 1019.12 1018.92 1018.64 1018.48 1018.32 1018.20 1018.08 1017.96 1017.88
Thickness
5329 5324 5319 5314 5308 5302 5296 5291 5286 5281 5276 5272 5268 5264 5260 5256 5252 5248 5244 5239 5236 5232 5228 5224 5220 5216 5212 5208 5203 5199 5196 5192 5187 5183 5178 5174 5169 5164 5160 5156 5153 5149 5147 5145 5143 5143 5142 5142 5142 5141 5140 5140 5139 5137 5136 5134 5132 5130 5129 5126 5125 5123 5122 5120 5119 5118 5117 5117 5117
5329 5323 5317 5312 5306 5300 5295 5290 5285 5280 5275 5271 5267 5263 5259 5255 5251 5247 5244 5240 5235 5231 5227 5223 5219 5215 5211 5207 5203 5199 5195 5191 5187 5183 5179 5174 5169 5164 5160 5156 5153 5150 5147 5146 5144 5144 5143 5143 5143 5143 5142 5142 5140 5139 5138 5136 5134 5133 5132 5131 5129 5128 5127 5126 5125 5123 5123 5122 5123
5327 5321 5316 5310 5305 5300 5294 5289 5284 5279 5274 5270 5266 5261 5258 5254 5251 5247 5243 5239 5234 5229 5226 5222 5219 5214 5210 5206 5203 5198 5194 5191 5187 5182 5178 5174 5169 5164 5160 5156 5153 5150 5148 5146 5144 5144 5144 5144 5144 5143 5143 5143 5142 5140 5140 5138 5137 5136 5135 5134 5133 5132 5131 5130 5129 5128 5127 5127 5127
5325 5320 5315 5310 5304 5299 5293 5288 5283 5278 5273 5269 5265 5261 5257 5253 5250 5246 5242 5238 5234 5229 5225 5222 5217 5214 5210 5206 5202 5198 5194 5189 5186 5182 5178 5174 5169 5164 5160 5156 5153 5150 5148 5146 5144 5144 5144 5144 5144 5144 5144 5143 5142 5142 5141 5140 5139 5138 5137 5136 5135 5134 5134 5133 5133 5132 5131 5131 5131
5324 5318 5313 5308 5302 5297 5291 5286 5282 5277 5272 5268 5264 5260 5256 5253 5249 5245 5241 5237 5233 5229 5225 5220 5217 5213 5210 5206 5202 5198 5193 5189 5185 5182 5178 5174 5169 5165 5160 5156 5153 5151 5148 5146 5145 5145 5144 5145 5144 5145 5144 5143 5143 5142 5142 5141 5141 5140 5139 5138 5137 5137 5136 5136 5136 5136 5136 5135 5135
5323 5317 5311 5306 5300 5295 5290 5285 5280 5276 5271 5267 5263 5259 5256 5252 5248 5245 5241 5237 5233 5229 5225 5220 5216 5213 5209 5205 5201 5197 5193 5189 5185 5181 5177 5174 5170 5165 5161 5157 5154 5151 5148 5147 5145 5145 5144 5145 5144 5145 5144 5144 5143 5142 5142 5142 5142 5142 5141 5140 5140 5140 5138 5138 5138 5139 5139 5139 5139
5321 5316 5310 5305 5300 5294 5289 5284 5279 5274 5270 5266 5263 5259 5255 5252 5248 5244 5240 5236 5232 5228 5224 5220 5216 5212 5209 5205 5202 5197 5193 5189 5185 5182 5177 5174 5170 5166 5162 5158 5154 5151 5149 5147 5146 5145 5144 5145 5145 5144 5144 5144 5143 5142 5142 5142 5142 5142 5143 5142 5142 5141 5141 5141 5141 5142 5142 5144 5143
5319 5313 5309 5304 5298 5293 5288 5283 5279 5274 5269 5266 5262 5259 5255 5251 5247 5243 5239 5236 5232 5228 5224 5220 5216 5212 5209 5205 5201 5198 5193 5189 5185 5182 5178 5174 5171 5166 5162 5159 5155 5152 5149 5148 5145 5144 5144 5144 5144 5143 5143 5143 5142 5142 5142 5142 5142 5143 5144 5144 5144 5143 5143 5143 5143 5143 5144 5146 5147
5318 5313 5307 5302 5297 5292 5287 5283 5278 5274 5269 5266 5262 5258 5255 5251 5247 5244 5240 5236 5232 5228 5223 5220 5216 5212 5208 5204 5201 5197 5193 5190 5186 5182 5178 5174 5171 5167 5163 5159 5155 5152 5149 5147 5146 5145 5144 5144 5144 5143 5143 5142 5142 5141 5141 5142 5142 5143 5144 5145 5145 5146 5145 5146 5146 5146 5147 5148 5149
5317 5312 5307 5302 5297 5292 5287 5282 5278 5273 5269 5266 5262 5259 5255 5250 5247 5243 5239 5235 5231 5228 5223 5220 5215 5212 5208 5204 5201 5197 5193 5190 5187 5182 5178 5175 5171 5167 5163 5160 5156 5153 5150 5148 5146 5145 5145 5144 5143 5142 5142 5141 5141 5141 5141 5141 5142 5142 5144 5144 5146 5146 5147 5147 5148 5149 5149 5150 5151
5317 5311 5306 5301 5296 5291 5286 5282 5277 5273 5269 5266 5262 5258 5254 5250 5247 5243 5239 5235 5231 5228 5224 5220 5216 5212 5208 5205 5201 5198 5194 5190 5187 5183 5179 5175 5172 5168 5164 5160 5156 5153 5150 5148 5145 5145 5145 5144 5143 5143 5141 5141 5141 5141 5141 5141 5141 5142 5143 5143 5144 5145 5147 5147 5148 5150 5151 5152 5153
5316 5311 5305 5300 5295 5290 5286 5282 5278 5273 5270 5265 5262 5258 5254 5250 5246 5243 5239 5235 5231 5227 5224 5220 5216 5212 5208 5205 5202 5198 5195 5191 5188 5184 5180 5176 5172 5168 5164 5161 5158 5154 5151 5148 5146 5145 5144 5144 5143 5142 5142 5141 5141 5141 5141 5141 5141 5142 5142 5143 5143 5144 5145 5146 5148 5149 5150 5152 5153
5315 5310 5305 5300 5295 5290 5286 5282 5277 5273 5269 5265 5261 5258 5254 5250 5246 5243 5238 5235 5232 5228 5224 5220 5216 5212 5209 5205 5202 5199 5195 5192 5188 5185 5181 5177 5173 5170 5165 5162 5158 5155 5152 5149 5146 5145 5144 5144 5143 5142 5142 5141 5141 5141 5140 5141 5141 5141 5142 5142 5143 5143 5144 5145 5146 5148 5149 5151 5153
5314 5310 5305 5300 5295 5291 5286 5282 5277 5273 5270 5266 5262 5257 5254 5250 5246 5242 5239 5235 5231 5228 5224 5220 5217 5213 5209 5205 5202 5199 5196 5193 5189 5186 5182 5179 5174 5170 5166 5163 5159 5156 5152 5149 5147 5144 5144 5144 5143 5142 5141 5140 5140 5140 5140 5140 5140 5140 5141 5141 5142 5142 5143 5144 5145 5147 5148 5150 5152
5314 5310 5304 5300 5295 5291 5286 5282 5278 5273 5269 5265 5261 5257 5253 5249 5246 5242 5239 5235 5231 5228 5224 5221 5217 5214 5210 5206 5203 5200 5196 5193 5189 5187 5183 5179 5176 5172 5168 5164 5160 5157 5154 5150 5148 5145 5144 5143 5143 5142 5141 5140 5140 5140 5139 5139 5140 5139 5140 5140 5140 5140 5141 5142 5143 5145 5147 5149 5150
5314 5310 5304 5300 5294 5290 5285 5281 5277 5273 5269 5265 5261 5257 5253 5249 5246 5242 5239 5235 5231 5228 5224 5221 5218 5214 5210 5207 5204 5201 5197 5194 5191 5187 5184 5180 5177 5174 5169 5166 5162 5158 5155 5151 5149 5147 5146 5144 5143 5141 5140 5139 5139 5139 5139 5139 5139 5139 5139 5139 5139 5139 5140 5140 5141 5143 5144 5146 5148
5314 5309 5303 5299 5294 5290 5285 5281 5276 5272 5268 5264 5260 5256 5253 5249 5246 5242 5239 5235 5232 5228 5225 5221 5218 5215 5211 5208 5205 5201 5198 5195 5191 5188 5185 5182 5179 5176 5172 5168 5163 5160 5157 5153 5150 5148 5147 5145 5143 5141 5140 5139 5138 5137 5138 5138 5138 5138 5138 5139 5138 5139 5138 5139 5140 5141 5142 5144 5145
5313 5308 5303 5299 5294 5289 5285 5280 5276 5272 5268 5264 5260 5256 5252 5249 5246 5242 5239 5235 5232 5228 5225 5222 5219 5216 5212 5209 5206 5202 5199 5196 5192 5189 5186 5183 5180 5177 5174 5171 5166 5162 5158 5155 5152 5150 5148 5147 5144 5142 5140 5139 5137 5137 5137 5137 5137 5137 5137 5138 5138 5138 5138 5138 5139 5139 5140 5141 5143
5314 5308 5303 5299 5294 5290 5285 5281 5276 5272 5268 5264 5260 5256 5253 5249 5246 5242 5239 5235 5232 5229 5226 5223 5219 5217 5213 5210 5207 5203 5200 5197 5194 5190 5187 5184 5181 5178 5176 5172 5169 5165 5162 5157 5154 5152 5150 5148 5145 5143 5141 5139 5138 5137 5136 5136 5137 5136 5136 5137 5136 5137 5137 5137 5137 5138 5138 5139 5140
5313 5308 5304 5299 5294 5289 5285 5281 5277 5273 5269 5265 5261 5257 5253 5250 5246 5243 5239 5236 5233 5229 5226 5223 5220 5218 5214 5211 5207 5204 5200 5198 5194 5191 5188 5185 5183 5180 5177 5174 5171 5169 5165 5161 5157 5154 5152 5149 5147 5144 5142 5139 5138 5138 5137 5136 5137 5136 5136 5136 5136 5136 5135 5136 5136 5137 5138 5139 5139
5313 5308 5303 5298 5294 5290 5285 5281 5278 5273 5269 5265 5261 5258 5254 5250 5247 5243 5240 5237 5233 5230 5227 5224 5221 5219 5215 5212 5208 5205 5201 5199 5196 5193 5190 5187 5184 5182 5178 5176 5173 5171 5168 5164 5160 5157 5154 5151 5148 5145 5143 5141 5139 5138 5137 5137 5136 5136 5136 5136 5135 5135 5135 5135 5135 5136 5137 5138 5139
5313 5308 5303 5299 5294 5289 5285 5282 5277 5274 5270 5265 5261 5258 5254 5250 5247 5244 5240 5237 5234 5231 5227 5225 5222 5219 5216 5213 5209 5206 5202 5200 5197 5194 5192 5189 5186 5183 5180 5177 5175 5172 5169 5166 5163 5160 5157 5153 5150 5147 5144 5141 5140 5138 5138 5137 5136 5136 5136 5136 5135 5135 5135 5134 5135 5135 5136 5137 5138
5312 5307 5303 5298 5294 5290 5286 5282 5278 5274 5269 5266 5262 5258 5255 5251 5248 5244 5241 5238 5234 5231 5228 5225 5222 5219 5217 5213 5210 5207 5204 5201 5198 5195 5193 5190 5187 5184 5182 5179 5176 5173 5170 5168 5165 5162 5159 5156 5153 5149 5146 5143 5141 5139 5138 5137 5137 5136 5136 5135 5135 5134 5135 5134 5135 5134 5135 5136 5137
5312 5307 5302 5298 5294 5290 5286 5282 5278 5273 5270 5266 5263 5259 5256 5252 5248 5245 5242 5238 5235 5232 5228 5226 5223 5220 5217 5215 5212 5209 5206 5203 5200 5197 5194 5191 5189 5185 5183 5180 5177 5175 5172 5169 5167 5165 5163 5160 5156 5153 5149 5146 5143 5141 5140 5138 5137 5136 5135 5135 5134 5135 5134 5134 5134 5134 5135 5135 5136
5311 5307 5302 5298 5294 5290 5286 5281 5278 5274 5270 5267 5263 5259 5256 5252 5249 5246 5243 5239 5236 5233 5230 5227 5223 5221 5219 5216 5214 5211 5208 5205 5202 5198 5195 5192 5189 5187 5184 5182 5179 5176 5173 5170 5169 5168 5166 5164 5160 5156 5151 5148 5146 5143 5141 5140 5138 5136 5135 5135 5135 5134 5134 5134 5134 5134 5134 5135 5135
5310 5306 5302 5298 5294 5290 5286 5281 5278 5274 5271 5267 5263 5260 5257 5253 5250 5247 5244 5241 5237 5234 5231 5228 5225 5223 5221 5218 5215 5212 5209 5206 5203 5200 5197 5194 5191 5188 5186 5183 5181 5178 5175 5172 5171 5170 5169 5165 5162 5158 5153 5150 5147 5145 5143 5141 5139 5137 5136 5135 5135 5135 5134 5134 5134 5134 5135 5135 5135
5311 5307 5302 5298 5293 5289 5286 5281 5278 5274 5271 5267 5264 5261 5257 5254 5251 5247 5245 5242 5239 5235 5232 5229 5227 5225 5223 5220 5217 5214 5211 5208 5205 5202 5199 5196 5193 5190 5188 5186 5183 5180 5176 5175 5173 5172 5170 5167 5164 5160 5156 5152 5149 5147 5144 5143 5140 5138 5137 5136 5135 5135 5134 5134 5134 5134 5134 5134 5134
5311 5306 5302 5298 5294 5290 5286 5282 5278 5275 5272 5268 5265 5261 5258 5255 5252 5249 5246 5243 5239 5236 5233 5231 5229 5226 5224 5221 5218 5215 5212 5210 5206 5204 5201 5198 5195 5193 5189 5187 5185 5182 5179 5177 5175 5174 5171 5170 5166 5163 5159 5155 5152 5148 5146 5144 5141 5140 5139 5137 5136 5135 5135 5134 5134 5133 5134 5134 5134
5311 5307 5302 5298 5295 5290 5286 5282 5279 5276 5273 5269 5266 5262 5259 5256 5253 5250 5247 5244 5241 5238 5236 5233 5230 5228 5225 5223 5219 5217 5214 5211 5209 5205 5203 5200 5197 5194 5192 5189 5186 5184 5181 5179 5177 5175 5173 5171 5169 5165 5161 5157 5153 5150 5148 5146 5144 5142 5140 5139 5137 5136 5135 5134 5133 5133 5133 5133 5133
5311 5306 5302 5299 5294 5291 5288 5284 5280 5277 5274 5270 5267 5263 5260 5257 5253 5251 5248 5245 5243 5240 5237 5234 5231 5229 5226 5224 5221 5218 5215 5213 5210 5207 5204 5202 5199 5196 5193 5191 5188 5186 5183 5181 5179 5177 5174 5172 5170 5168 5164 5160 5156 5152 5149 5146 5145 5144 5143 5141 5140 5138 5136 5135 5134 5134 5133 5133 5132
5311 5307 5303 5299 5296 5292 5288 5284 5281 5277 5274 5271 5267 5264 5261 5258 5255 5253 5250 5248 5244 5241 5238 5235 5232 5229 5227 5224 5221 5219 5217 5214 5211 5208 5206 5203 5201 5198 5196 5193 5190 5188 5185 5183 5181 5179 5176 5174 5171 5169 5166 5162 5159 5155 5152 5148 5146 5145 5144 5143 5141 5140 5137 5136 5135 5134 5134 5133 5132
5312 5308 5304 5300 5297 5293 5289 5285 5282 5279 5275 5272 5269 5265 5262 5259 5256 5254 5251 5248 5245 5242 5239 5236 5234 5231 5228 5226 5222 5220 5217 5215 5212 5209 5207 5204 5202 5200 5198 5195 5193 5190 5187 5186 5183 5181 5178 5176 5173 5171 5168 5165 5161 5158 5153 5150 5148 5147 5146 5145 5143 5141 5139 5137 5136 5135 5135 5133 5132
5314 5310 5306 5302 5298 5294 5290 5287 5283 5280 5277 5273 5270 5267 5263 5260 5257 5254 5251 5249 5246 5244 5241 5238 5236 5233 5230 5228 5224 5222 5219 5216 5213 5211 5208 5206 5203 5201 5199 5197 5194 5192 5190 5187 5185 5183 5181 5178 5175 5172 5170 5167 5164 5160 5156 5154 5151 5149 5148 5147 5146 5144 5142 5140 5138 5137 5135 5134 5133
5316 5312 5307 5303 5299 5295 5291 5288 5284 5281 5277 5274 5271 5267 5264 5261 5258 5255 5253 5251 5248 5245 5243 5240 5237 5234 5232 5229 5226 5223 5220 5217 5214 5211 5209 5207 5204 5202 5201 5198 5196 5193 5192 5189 5187 5185 5182 5179 5176 5174 5171 5169 5166 5163 5160 5158 5155 5153 5151 5150 5148 5146 5145 5142 5140 5138 5136 5135 5134
5317 5313 5308 5304 5300 5296 5293 5289 5286 5282 5279 5275 5272 5269 5266 5263 5260 5257 5254 5252 5249 5246 5243 5240 5238 5234 5232 5229 5226 5224 5221 5218 5215 5213 5211 5208 5206 5203 5202 5199 5197 5196 5194 5191 5188 5186 5184 5181 5179 5176 5173 5171 5169 5167 5165 5162 5159 5157 5155 5153 5151 5149 5147 5145 5142 5140 5138 5136 5135
5318 5314 5310 5306 5302 5298 5294 5290 5286 5283 5280 5277 5274 5270 5267 5264 5261 5259 5255 5252 5250 5247 5245 5242 5239 5236 5233 5230 5228 5225 5222 5220 5217 5215 5212 5210 5208 5206 5204 5202 5199 5198 5195 5193 5190 5188 5186 5183 5181 5179 5176 5174 5171 5170 5168 5165 5163 5161 5158 5155 5153 5151 5149 5147 5144 5142 5140 5138 5136
5320 5316 5312 5308 5303 5299 5295 5292 5287 5284 5281 5278 5275 5272 5269 5266 5263 5260 5257 5255 5251 5249 5246 5244 5241 5238 5235 5233 5230 5227 5224 5221 5219 5217 5214 5212 5210 5208 5205 5204 5202 5199 5197 5194 5192 5190 5188 5186 5184 5181 5179 5176 5174 5172 5170 5168 5166 5163 5161 5158 5156 5154 5151 5149 5147 5144 5142 5140 5138
5322 5318 5313 5309 5304 5301 5296 5293 5288 5285 5283 5279 5276 5273 5270 5267 5264 5261 5259 5256 5253 5251 5249 5246 5243 5240 5238 5235 5232 5229 5226 5224 5221 5219 5217 5214 5212 5209 5207 5205 5204 5201 5199 5196 5194 5192 5190 5188 5186 5184 5181 5179 5176 5174 5172 5170 5168 5166 5163 5161 5158 5155 5153 5151 5149 5146 5144 5142 5141
5324 5319 5315 5310 5306 5302 5297 5294 5291 5287 5284 5281 5278 5275 5271 5269 5266 5263 5260 5257 5255 5253 5251 5248 5246 5243 5240 5237 5235 5232 5229 5227 5224 5222 5220 5217 5214 5212 5210 5208 5206 5203 5200 5199 5196 5194 5192 5190 5188 5186 5184 5181 5178 5176 5174 5173 5171 5169 5166 5163 5161 5159 5156 5154 5151 5149 5147 5145 5144
5325 5321 5316 5312 5308 5304 5299 5296 5292 5289 5285 5282 5279 5276 5273 5270 5267 5264 5262 5259 5257 5254 5253 5250 5248 5246 5243 5240 5238 5235 5233 5230 5227 5225 5222 5219 5217 5214 5212 5210 5207 5205 5203 5200 5198 5196 5194 5192 5190 5189 5186 5183 5181 5179 5176 5174 5173 5172 5169 5167 5164 5162 5160 5157 5155 5153 5150 5149 5147
5327 5322 5317 5313 5309 5305 5301 5298 5294 5290 5287 5283 5280 5277 5274 5271 5268 5265 5263 5260 5258 5256 5254 5252 5250 5247 5245 5243 5240 5238 5235 5233 5230 5228 5225 5222 5219 5217 5214 5212 5209 5207 5205 5203 5201 5199 5197 5195 5193 5191 5189 5186 5183 5180 5178 5176 5176 5174 5173 5170 5168 5166 5163 5161 5159 5157 5154 5153 5150